| time (UTC) | temp C | wind direction | speed KPH | gust KPH | rain 1hr cm | rain 24hr cm | rain mn cm | humidity % | barometer mb |
| 20260504081019 | 14 | 9 | 14.5 | 29.0 | 0.00 | 0.74 | 0.00 | 49 | 1018.7 |
| 20260504050018 | 11 | 1 | 12.9 | 29.0 | 0.00 | 0.74 | 0.00 | 63 | 1017.6 |
| 20260504045019 | 11 | 359 | 12.9 | 27.4 | 0.00 | 0.74 | 0.00 | 64 | 1017.7 |
| 20260504044017 | 11 | 356 | 11.3 | 24.1 | 0.00 | 0.74 | 0.00 | 64 | 1017.6 |
| 20260504043017 | 11 | 337 | 11.3 | 27.4 | 0.00 | 0.74 | 0.00 | 64 | 1017.5 |
| 20260504042022 | 11 | 341 | 12.9 | 24.1 | 0.00 | 0.74 | 0.00 | 64 | 1017.5 |
| 20260504041017 | 11 | 358 | 11.3 | 24.1 | 0.00 | 0.74 | 0.00 | 65 | 1017.2 |
| 20260504040022 | 11 | 334 | 11.3 | 22.5 | 0.00 | 0.74 | 0.00 | 65 | 1017.2 |
| 20260504035037 | 11 | 351 | 9.7 | 20.9 | 0.00 | 0.74 | 0.00 | 65 | 1017.1 |
| 20260504034017 | 11 | 335 | 11.3 | 24.1 | 0.00 | 0.74 | 0.00 | 64 | 1017.1 |
| 20260504033017 | 10 | 344 | 11.3 | 27.4 | 0.00 | 0.74 | 0.00 | 64 | 1017.1 |
| 20260504032017 | 10 | 344 | 11.3 | 25.7 | 0.00 | 0.74 | 0.00 | 64 | 1016.9 |
| 20260504031023 | 11 | 343 | 11.3 | 20.9 | 0.00 | 0.74 | 0.00 | 64 | 1016.9 |
| 20260504030021 | 11 | 345 | 11.3 | 22.5 | 0.00 | 0.74 | 0.00 | 63 | 1016.9 |
| 20260504025044 | 11 | 349 | 11.3 | 24.1 | 0.00 | 0.74 | 0.00 | 62 | 1016.7 |
| 20260504024023 | 11 | 356 | 14.5 | 29.0 | 0.00 | 0.74 | 0.00 | 63 | 1016.7 |
| 20260504023024 | 11 | 344 | 12.9 | 25.7 | 0.00 | 0.74 | 0.00 | 62 | 1016.6 |
| 20260504022022 | 11 | 337 | 11.3 | 22.5 | 0.00 | 0.74 | 0.00 | 63 | 1016.7 |
| 20260504021019 | 11 | 352 | 14.5 | 25.7 | 0.00 | 0.74 | 0.00 | 62 | 1016.6 |
| 20260504020024 | 11 | 350 | 11.3 | 27.4 | 0.00 | 0.74 | 0.00 | 62 | 1016.7 |
| 20260504015021 | 11 | 349 | 12.9 | 27.4 | 0.00 | 0.74 | 0.00 | 62 | 1016.6 |
| 20260504014016 | 10 | 347 | 12.9 | 25.7 | 0.00 | 0.74 | 0.00 | 61 | 1016.6 |
| 20260504013022 | 11 | 341 | 11.3 | 27.4 | 0.00 | 0.74 | 0.00 | 62 | 1016.5 |
| 20260504012021 | 10 | 344 | 14.5 | 25.7 | 0.00 | 0.74 | 0.00 | 61 | 1016.5 |
| 20260504011021 | 11 | 344 | 16.1 | 27.4 | 0.00 | 0.74 | 0.00 | 60 | 1016.3 |
| 20260504010026 | 11 | 346 | 16.1 | 33.8 | 0.00 | 0.74 | 0.00 | 59 | 1016.3 |
| 20260504005043 | 11 | 345 | 16.1 | 27.4 | 0.00 | 0.74 | 0.00 | 60 | 1016.2 |
| 20260504004042 | 11 | 344 | 12.9 | 27.4 | 0.00 | 0.74 | 0.00 | 60 | 1016.2 |
| 20260504003018 | 11 | 359 | 14.5 | 35.4 | 0.00 | 0.74 | 0.00 | 61 | 1016.1 |
| 20260504002025 | 11 | 344 | 14.5 | 30.6 | 0.00 | 0.74 | 0.00 | 59 | 1016.1 |
| 20260504001024 | 11 | 341 | 14.5 | 25.7 | 0.00 | 0.74 | 0.00 | 59 | 1016.0 |
| 20260504000020 | 11 | 355 | 17.7 | 41.8 | 0.00 | 0.74 | 0.00 | 58 | 1016.1 |
| 20260503235026 | 11 | 339 | 14.5 | 27.4 | 0.00 | 0.74 | 0.00 | 58 | 1016.1 |
| 20260503234039 | 11 | 356 | 16.1 | 29.0 | 0.00 | 0.74 | 0.00 | 57 | 1016.2 |
| 20260503233026 | 11 | 342 | 12.9 | 25.7 | 0.00 | 0.74 | 0.00 | 57 | 1016.5 |
| 20260503232025 | 11 | 332 | 16.1 | 27.4 | 0.00 | 0.74 | 0.00 | 57 | 1016.5 |
| 20260503231039 | 11 | 340 | 12.9 | 27.4 | 0.00 | 0.74 | 0.00 | 57 | 1016.3 |
| 20260503230017 | 11 | 334 | 14.5 | 30.6 | 0.00 | 0.74 | 0.00 | 57 | 1016.2 |
| 20260503225017 | 11 | 339 | 14.5 | 35.4 | 0.00 | 0.74 | 0.00 | 57 | 1016.2 |
| 20260503224017 | 11 | 15 | 14.5 | 30.6 | 0.00 | 0.74 | 0.00 | 57 | 1016.1 |
| 20260503223025 | 11 | 359 | 20.9 | 46.7 | 0.00 | 0.74 | 0.00 | 57 | 1016.0 |
| 20260503222022 | 11 | 6 | 20.9 | 38.6 | 0.00 | 0.74 | 0.00 | 57 | 1016.0 |
| 20260503221020 | 11 | 9 | 19.3 | 38.6 | 0.00 | 0.74 | 0.00 | 57 | 1015.8 |
| 20260503220019 | 11 | 0 | 17.7 | 40.2 | 0.00 | 0.74 | 0.00 | 58 | 1015.7 |
| 20260503215019 | 11 | 3 | 17.7 | 41.8 | 0.00 | 0.74 | 0.00 | 59 | 1015.8 |
| 20260503214022 | 11 | 14 | 19.3 | 43.5 | 0.00 | 0.74 | 0.00 | 59 | 1015.7 |
| 20260503213022 | 11 | 357 | 17.7 | 35.4 | 0.00 | 0.74 | 0.00 | 60 | 1015.6 |
| 20260503212116 | 11 | 8 | 19.3 | 35.4 | 0.00 | 0.74 | 0.00 | 59 | 1015.5 |
| 20260503211023 | 12 | 15 | 22.5 | 43.5 | 0.00 | 0.74 | 0.00 | 58 | 1015.4 |
| 20260503210022 | 12 | 4 | 19.3 | 41.8 | 0.00 | 0.74 | 0.74 | 60 | 1015.3 |
| 20260503205023 | 12 | 1 | 20.9 | 41.8 | 0.00 | 0.74 | 0.74 | 57 | 1015.2 |
| 20260503204018 | 12 | 18 | 19.3 | 38.6 | 0.00 | 0.74 | 0.74 | 59 | 1015.2 |
| 20260503203022 | 12 | 8 | 19.3 | 35.4 | 0.00 | 0.74 | 0.74 | 61 | 1015.1 |
| 20260503202016 | 12 | 10 | 17.7 | 35.4 | 0.00 | 0.74 | 0.74 | 62 | 1015.1 |
| 20260503201022 | 12 | 355 | 16.1 | 30.6 | 0.00 | 0.74 | 0.74 | 63 | 1015.2 |
| 20260503200019 | 12 | 8 | 16.1 | 33.8 | 0.00 | 0.74 | 0.74 | 64 | 1015.0 |
| 20260503195025 | 12 | 352 | 20.9 | 37.0 | 0.00 | 0.74 | 0.74 | 64 | 1015.0 |
| 20260503194020 | 12 | 16 | 16.1 | 30.6 | 0.00 | 0.74 | 0.74 | 65 | 1014.9 |
| 20260503193021 | 12 | 4 | 16.1 | 33.8 | 0.00 | 0.74 | 0.74 | 65 | 1014.8 |
| 20260503192039 | 12 | 12 | 17.7 | 33.8 | 0.00 | 0.74 | 0.74 | 65 | 1014.6 |
| 20260503191024 | 12 | 360 | 17.7 | 35.4 | 0.00 | 0.74 | 0.74 | 66 | 1014.7 |
| 20260503190020 | 12 | 6 | 16.1 | 35.4 | 0.00 | 0.74 | 0.74 | 65 | 1014.5 |
| 20260503185038 | 12 | 357 | 16.1 | 35.4 | 0.00 | 0.74 | 0.74 | 66 | 1014.4 |
| 20260503184021 | 12 | 1 | 16.1 | 37.0 | 0.00 | 0.74 | 0.74 | 65 | 1014.5 |
| 20260503183020 | 12 | 355 | 16.1 | 38.6 | 0.00 | 0.74 | 0.74 | 66 | 1014.4 |
| 20260503182024 | 12 | 24 | 17.7 | 41.8 | 0.00 | 0.74 | 0.74 | 65 | 1014.3 |
| 20260503181122 | 12 | 17 | 17.7 | 37.0 | 0.00 | 0.74 | 0.74 | 65 | 1014.2 |
| 20260503180024 | 13 | 18 | 17.7 | 48.3 | 0.00 | 0.74 | 0.74 | 65 | 1014.1 |
| 20260503175023 | 13 | 11 | 17.7 | 33.8 | 0.00 | 0.74 | 0.74 | 65 | 1014.0 |
| 20260503174022 | 12 | 18 | 17.7 | 35.4 | 0.00 | 0.74 | 0.74 | 64 | 1013.9 |
| 20260503173021 | 12 | 25 | 14.5 | 30.6 | 0.00 | 0.74 | 0.74 | 64 | 1013.9 |
| 20260503172018 | 12 | 32 | 12.9 | 29.0 | 0.00 | 0.74 | 0.74 | 65 | 1013.8 |
| 20260503171024 | 12 | 16 | 14.5 | 29.0 | 0.00 | 0.74 | 0.74 | 66 | 1013.7 |
| 20260503131017 | 11 | 355 | 14.5 | 30.6 | 0.05 | 0.66 | 0.66 | 77 | 1012.4 |